sat.trackr.live / text

‹ back to catalog

STARLINK-3652

NORAD 51991 · 2022-025AM

PAYLOAD ACTIVE UNKNOWN

§ Identity

Operator
Country
US
Launch date
2022-03-09
Launch site
AFETR
Launch vehicle
Mass (kg)
RCS (m²)

Purposes: comms

External: N2YO · Heavens-Above · Gunter

§ Orbital elements

Epoch: 2026-09-19T22:16:56.445312Z

Period
93.85 min
Inclination
53.1590°
Eccentricity
0.0001288
Mean motion
15.34388082 rev/d
Perigee alt
461.9 km
Apogee alt
463.6 km
Semi-major
6,840.9 km
B*
1.8430e-5
RAAN
230.4503°
Arg perigee
86.9560°
Mean anomaly
273.1590°
Rev number
25,061

§ Raw data

STARLINK-36521 51991U 22025AM  26262.92843108  .00000246  00000+0  18430-4 0  99902 51991  53.1590 230.4503 0001288  86.9560 273.1590 15.34388082250613

JSON: /api/v1/satellites/51991 · /tle

For live sub-satellite position, see the globe view (requires WebGL).

§ Visibility from observer

Set your observer location to see the next 7 days of passes ≥ 10°. The values pass through the URL so the page stays shareable.

No JS? Fill the form by hand. The geolocation button needs JavaScript.